カタログに戻る

KUIPER-00408

運用中通信LEO
NORAD 68924·PAYLOAD·🇺🇸 United States

打ち上げ Apr 30, 2026 から Guiana Space Centre

Loading…

次のパス (今後24時間)

TLE

最新Source: CelesTrak SupGP

元期: Sep 14, 2026, 22:06 UTC

1 68924C 26098F   26257.92093750  .00004935  00000+0  64604-3 0  2571
2 68924  51.9000  16.2826 0000505 100.2923 248.9172 14.79927790    17

AllMySatでKUIPER-00408をリアルタイム追跡

Download on the App Store